Newport, AR

11:38 PM CDT on October 20, 2017 (GMT -0500)
Newport

Weather History for KM19 - September, 2013

Change the Weather History Date:

Wednesday, September 11, 2013

  Actual Average (KBVX) Record (KBVX)
Temperature  
Mean Temperature 82 °F -  
Max Temperature 92 °F 84 °F 99 °F (1953)
Min Temperature 72 °F 61 °F 43 °F (1976)
Cooling Degree Days 17    
Growing Degree Days 32 (Base 50)    
Moisture  
Dew Point 72 °F    
Average Humidity 76    
Maximum Humidity 100    
Minimum Humidity 47    
Precipitation  
Precipitation 0.00 in - - ()
Sea Level Pressure  
Sea Level Pressure 30.11 in    
Wind  
Wind Speed 4 mph (SE)    
Max Wind Speed 9 mph    
Max Gust Speed -    
Visibility 9 miles    
Events Thunderstorm    
Averages and records for this station are not official NWS values.
T = Trace of Precipitation, MM = Missing Value Source: NWS Daily Summary

Daily Weather History Graph

Daily Weather History Graph

Search for Another Location

Airport or City:

Trip Planner

Search our weather history database for the weather conditions in past years. The results will help you decide how hot, cold, wet, or windy it might be!

Date:

Astronomy

Sep. 11, 2013 Rise Set
Actual Time 6:44 AM CDT 7:17 PM CDT
Civil Twilight 6:18 AM CDT 7:42 PM CDT
Nautical Twilight 5:48 AM CDT 8:13 PM CDT
Astronomical Twilight 5:17 AM CDT 8:43 PM CDT
Moon 1:00 PM CDT (9/11) 11:26 PM CDT (9/11)
Length of Visible Light 13h 24m
Length of Day
12h 32m
Waxing Crescent, 39% of the Moon is Illuminated
Sep 11
Waxing Crescent
Sep 12
First Quarter
Sep 19
Full
Sep 26
Last Quarter
Oct 4
New

Hourly Weather History & Observations

Time (CDT) Temp. Heat Index Dew Point Humidity Pressure Visibility Wind Dir Wind Speed Gust Speed Precip Events Conditions
12:56 AM 77.0 °F - 70.0 °F 79% 30.11 in 10.0 mi Calm Calm - N/A   Clear
1:56 AM 72.9 °F - 70.9 °F 93% 30.12 in 8.0 mi East 3.5 mph - N/A   Clear
2:56 AM 73.9 °F - 70.0 °F 87% 30.12 in 10.0 mi Calm Calm - N/A   Clear
3:56 AM 72.0 °F - 70.9 °F 96% 30.12 in 7.0 mi SE 3.5 mph - N/A   Clear
4:56 AM 72.0 °F - 70.9 °F 96% 30.12 in 9.0 mi ESE 4.6 mph - N/A   Clear
5:56 AM 72.0 °F - 70.9 °F 96% 30.13 in 7.0 mi ESE 5.8 mph - N/A   Clear
6:56 AM 72.0 °F - 72.0 °F 100% 30.15 in 6.0 mi ESE 6.9 mph - N/A   Clear
7:56 AM 73.9 °F - 72.9 °F 96% 30.15 in 8.0 mi SE 4.6 mph - N/A   Clear
8:56 AM 79.9 °F - 70.9 °F 74% 30.15 in 10.0 mi South 5.8 mph - N/A   Clear
9:56 AM 81.0 °F 85.2 °F 72.0 °F 74% 30.16 in 10.0 mi SSE 4.6 mph - N/A   Clear
10:56 AM 84.9 °F 91.4 °F 72.9 °F 67% 30.15 in 10.0 mi South 4.6 mph - N/A   Clear
11:56 AM 90.0 °F 96.9 °F 72.0 °F 55% 30.15 in 10.0 mi SE 5.8 mph - N/A   Clear
12:56 PM 88.0 °F 94.7 °F 72.0 °F 59% 30.14 in 10.0 mi ESE 5.8 mph - N/A   Clear
1:56 PM 91.9 °F 99.5 °F 72.0 °F 52% 30.12 in 10.0 mi ESE 8.1 mph - N/A   Clear
2:56 PM 91.9 °F 99.5 °F 72.0 °F 52% 30.09 in 10.0 mi ESE 9.2 mph - N/A   Clear
3:56 PM 92.8 °F 98.6 °F 70.0 °F 47% 30.07 in 10.0 mi SSE 6.9 mph - N/A   Clear
4:56 PM 88.0 °F 97.5 °F 74.8 °F 65% 30.07 in 10.0 mi ESE 8.1 mph - N/A   Clear
5:34 PM 87.8 °F 95.6 °F 73.4 °F 62% 30.09 in 6.0 mi South 6.9 mph - N/A Thunderstorm Unknown
5:56 PM 86.9 °F 94.1 °F 72.9 °F 63% 30.06 in 10.0 mi SW 4.6 mph - N/A   Clear
6:56 PM 83.8 °F 89.2 °F 72.0 °F 67% 30.07 in 9.0 mi West 4.6 mph - N/A   Clear
7:56 PM 79.9 °F - 72.0 °F 77% 30.07 in 10.0 mi North 3.5 mph - N/A   Clear
8:56 PM 79.0 °F - 72.9 °F 81% 30.08 in 10.0 mi Calm Calm - N/A   Clear
9:56 PM 77.0 °F - 72.9 °F 87% 30.10 in 10.0 mi NNW 3.5 mph - N/A   Clear
10:56 PM 77.0 °F - 72.0 °F 84% 30.09 in 10.0 mi NNW 3.5 mph - N/A   Clear
11:56 PM 77.0 °F - 70.9 °F 81% 30.07 in 10.0 mi Calm Calm - N/A   Clear